Date String (YYYY-MM-DD hh:mm:ss) UTC,Instrument flags,Ambient pressure (hPa),Sample flow (lpm),Bypass flow (lpm),Sample temperature (°C),Ambient temperature (°C),ASC tube jacket temperature (°C),LED temperature (°C),Box temperature (°C),Sample RH (%),Span deviation,Mass concentration (μg/m³),Mass concentration (μg/m³),Mass concentration (μg/m³)
DateTimeUTC,F1_M11,P_M11,Q1_M11,Q2_M11,T1_M11,T2_M11,T3_M11,T4_M11,T5_M11,U1_M11,ZSPAN_M11,X0_M11,X2_M11,X1_M11
2022-05-24 20:00:00,,0824.6,5.00,0.00,27.2,26.4,00.0,36.1,29.2,19.5,0000.8,0018.83,0009.87,0009.18
2022-05-24 20:01:00,,0824.6,5.00,0.00,27.2,26.4,00.0,36.1,29.2,19.7,0000.4,0019.13,0009.95,0009.23
2022-05-24 20:02:00,,0824.7,5.00,0.00,27.3,26.4,00.0,36.1,29.2,20.2,0000.3,0018.68,0010.06,0009.29
2022-05-24 20:03:00,,0824.6,4.99,0.00,27.3,26.4,00.0,36.1,29.2,20.4,0000.0,0018.62,0010.11,0009.30
2022-05-24 20:04:00,,0824.6,5.00,0.00,27.3,26.4,00.0,36.1,29.2,20.9,-000.5,0017.93,0010.19,0009.35
2022-05-24 20:05:00,,0824.6,5.01,0.00,27.3,26.4,00.0,36.1,29.3,20.2,-000.7,0018.16,0010.22,0009.39
2022-05-24 20:06:00,,0824.6,4.99,0.00,27.3,26.5,00.0,36.1,29.3,19.9,-000.4,0019.05,0010.25,0009.42
2022-05-24 20:07:00,,0824.6,5.01,0.00,27.3,26.5,00.0,36.2,29.3,19.6,-000.1,0019.26,0010.31,0009.46
2022-05-24 20:08:00,,0824.6,5.01,0.00,27.4,26.5,00.0,36.2,29.3,19.7,-000.4,0018.63,0010.36,0009.49
2022-05-24 20:09:00,,0824.6,5.00,0.00,27.4,26.5,00.0,36.2,29.3,19.7,-000.8,0017.96,0010.38,0009.52
2022-05-24 20:10:00,,0824.6,5.00,0.00,27.4,26.5,00.0,36.2,29.3,19.9,-001.1,0018.24,0010.41,0009.54
2022-05-24 20:11:00,,0824.5,5.00,0.00,27.4,26.5,00.0,36.2,29.3,19.9,-001.5,0017.73,0010.37,0009.55
2022-05-24 20:12:00,,0824.5,4.99,0.00,27.4,26.5,00.0,36.2,29.3,19.8,-001.7,0017.04,0010.38,0009.56
2022-05-24 20:13:00,,0824.5,5.01,0.00,27.4,26.6,00.0,36.2,29.4,19.8,-001.9,0016.94,0010.31,0009.55
2022-05-24 20:14:00,,0824.5,5.00,0.00,27.4,26.6,00.0,36.2,29.4,20.0,-001.5,0016.80,0010.31,0009.56
2022-05-24 20:15:00,,0824.5,4.99,0.00,27.5,26.6,00.0,36.3,29.4,20.0,-001.2,0016.75,0010.30,0009.56
2022-05-24 20:16:00,,0824.6,5.00,0.00,27.5,26.6,00.0,36.3,29.4,19.8,-001.2,0016.67,0010.31,0009.58
2022-05-24 20:17:00,,0824.6,5.01,0.00,27.5,26.6,00.0,36.3,29.4,20.4,-001.5,0015.90,0010.33,0009.58
2022-05-24 20:18:00,,0824.6,5.00,0.00,27.5,26.6,00.0,36.3,29.4,19.9,-001.7,0015.97,0010.25,0009.52
2022-05-24 20:19:00,,0824.6,5.01,0.00,27.5,26.6,00.0,36.3,29.4,18.9,-001.8,0016.08,0010.19,0009.46
2022-05-24 20:20:00,,0824.6,4.99,0.00,27.5,26.7,00.0,36.3,29.4,19.1,-001.6,0015.57,0010.10,0009.38
2022-05-24 20:21:00,,0824.6,4.99,0.00,27.5,26.7,00.0,36.4,29.5,18.7,-001.6,0014.95,0010.01,0009.31
2022-05-24 20:22:00,,0824.6,5.00,0.00,27.5,26.6,00.0,36.4,29.4,18.7,-001.3,0014.71,0009.96,0009.25
2022-05-24 20:23:00,,0824.6,5.01,0.00,27.5,26.6,00.0,36.4,29.4,18.9,-001.3,0014.57,0009.88,0009.18
2022-05-24 20:24:00,,0824.6,5.00,0.00,27.5,26.6,00.0,36.4,29.4,18.8,-000.8,0014.41,0009.86,0009.13
2022-05-24 20:25:00,,0824.6,5.00,0.00,27.5,26.6,00.0,36.4,29.4,19.2,-001.1,0014.53,0009.83,0009.08
2022-05-24 20:26:00,,0824.6,5.00,0.00,27.5,26.6,00.0,36.4,29.4,18.9,-001.2,0014.70,0009.80,0009.04
2022-05-24 20:27:00,,0824.6,5.00,0.00,27.6,26.7,00.0,36.4,29.5,19.2,-001.0,0014.76,0009.77,0008.97
2022-05-24 20:28:00,,0824.6,5.00,0.00,27.6,26.7,00.0,36.4,29.5,18.9,-000.9,0014.72,0009.70,0008.92
2022-05-24 20:29:00,,0824.6,5.01,0.00,27.6,26.7,00.0,36.4,29.5,18.6,-000.8,0014.97,0009.69,0008.91
2022-05-24 20:30:00,,0824.5,5.00,0.00,27.6,26.7,00.0,36.4,29.5,18.7,-000.7,0015.18,0009.68,0008.91
2022-05-24 20:31:00,,0824.5,5.01,0.00,27.6,26.7,00.0,36.4,29.5,18.5,-000.5,0015.70,0009.68,0008.91
2022-05-24 20:32:00,,0824.5,4.99,0.00,27.6,26.7,00.0,36.4,29.5,18.6,-000.5,0016.03,0009.69,0008.91
2022-05-24 20:33:00,,0824.5,5.02,0.00,27.6,26.8,00.0,36.5,29.5,18.8,-000.7,0015.98,0009.72,0008.93
2022-05-24 20:34:00,,0824.5,5.00,0.00,27.6,26.8,00.0,36.5,29.6,18.8,-000.3,0016.02,0009.73,0008.93
2022-05-24 20:35:00,,0824.4,5.01,0.00,27.7,26.8,00.0,36.5,29.6,18.6,-000.5,0016.18,0009.67,0008.89
2022-05-24 20:36:00,,0824.4,5.00,0.00,27.7,26.8,00.0,36.5,29.6,18.6,-000.5,0016.45,0009.60,0008.84
2022-05-24 20:37:00,,0824.4,5.01,0.00,27.7,26.8,00.0,36.5,29.6,18.0,-000.6,0016.24,0009.55,0008.80
2022-05-24 20:38:00,,0824.4,5.00,0.00,27.7,26.8,00.0,36.5,29.6,18.1,-000.9,0016.09,0009.51,0008.80
2022-05-24 20:39:00,,0824.4,5.00,0.00,27.7,26.8,00.0,36.5,29.6,18.2,-001.0,0016.31,0009.48,0008.76
2022-05-24 20:40:00,,0824.4,5.00,0.00,27.7,26.9,00.0,36.5,29.6,18.1,-000.9,0016.39,0009.48,0008.73
2022-05-24 20:41:00,,0824.4,5.01,0.00,27.7,26.9,00.0,36.6,29.7,18.2,-001.0,0015.64,0009.42,0008.70
2022-05-24 20:42:00,,0824.6,5.00,0.00,27.7,26.9,00.0,36.6,29.7,18.3,-001.3,0014.91,0009.38,0008.66
2022-05-24 20:43:00,,0824.5,5.00,0.00,27.8,26.9,00.0,36.6,29.7,18.0,-001.1,0014.55,0009.33,0008.60
2022-05-24 20:44:00,,0824.5,4.99,0.00,27.8,26.9,00.0,36.6,29.7,18.0,-001.3,0014.75,0009.24,0008.53
2022-05-24 20:45:00,,0824.4,5.00,0.00,27.8,26.9,00.0,36.6,29.7,17.6,-001.6,0015.38,0009.21,0008.48
2022-05-24 20:46:00,,0824.5,5.01,0.00,27.8,26.9,00.0,36.6,29.7,17.4,-001.8,0015.18,0009.23,0008.48
2022-05-24 20:47:00,,0824.4,4.98,0.00,27.8,27.0,00.0,36.6,29.7,17.5,-001.9,0014.72,0009.23,0008.46
2022-05-24 20:48:00,,0824.4,5.00,0.00,27.8,27.0,00.0,36.7,29.7,17.6,-001.5,0015.18,0009.24,0008.47
2022-05-24 20:49:00,,0824.4,5.00,0.00,27.8,27.0,00.0,36.7,29.8,17.5,-001.6,0015.37,0009.23,0008.43
2022-05-24 20:50:00,,0824.4,5.00,0.00,27.8,27.0,00.0,36.7,29.8,17.1,-001.6,0015.15,0009.18,0008.38
2022-05-24 20:51:00,,0824.4,5.00,0.00,27.9,27.0,00.0,36.7,29.8,16.8,-002.0,0014.13,0009.08,0008.30
2022-05-24 20:52:00,,0824.4,5.00,0.00,27.9,27.0,00.0,36.7,29.8,17.9,-002.0,0014.20,0009.08,0008.28
2022-05-24 20:53:00,,0824.4,5.00,0.00,27.9,27.0,00.0,36.7,29.8,18.2,-001.8,0014.39,0009.12,0008.29
2022-05-24 20:54:00,,0824.4,4.99,0.00,27.9,27.0,00.0,36.7,29.8,17.7,-002.3,0014.45,0009.15,0008.29
2022-05-24 20:55:00,,0824.4,5.00,0.00,27.9,27.1,00.0,36.7,29.8,17.3,-002.3,0014.59,0009.17,0008.32
2022-05-24 20:56:00,,0824.4,5.00,0.00,27.9,27.1,00.0,36.8,29.8,17.4,-002.3,0014.06,0009.17,0008.35
2022-05-24 20:57:00,,0824.4,5.00,0.00,27.9,27.1,00.0,36.8,29.9,17.1,-002.3,0013.98,0009.15,0008.37
2022-05-24 20:58:00,,0824.4,5.01,0.00,27.9,27.1,00.0,36.8,29.9,17.2,-002.2,0014.22,0009.17,0008.37
2022-05-24 20:59:00,,0824.4,5.00,0.00,28.0,27.1,00.0,36.8,29.9,17.3,-002.6,0013.76,0009.15,0008.35
